Regional Weather Roundup
Issued by NWS Wilmington, NC

Home | Current Version | Previous Version | Text Only | Print | Product List | Glossary On
Versions: 1 2 3 4 5 6 7 8 9 10 11 12 13 14 15 16 17 18 19 20 21 22 23 24 25 26 27
000
ASUS42 KILM 282113
RWRILM
RWRILM
REGIONAL HOURLY WEATHER ROUNDUP
NATIONAL WEATHER SERVICE WILMINGTON NC
500 PM EDT THU APR 28 2016

NOTE: "FAIR" INDICATES FEW OR NO CLOUDS BELOW 12,000 FEET WITH NO
SIGNIFICANT WEATHER AND/OR OBSTRUCTIONS TO VISIBILITY.

...............WFO WILMINGTON COUNTY WARNING AREA...............

......COASTAL NC AND SC COUNTIES......

CITY           SKY/WX    TMP DP  RH WIND       PRES   REMARKS
WILMINGTON     SUNNY     84  63  49 SW12      29.88S
N MYRTLE BEACH SUNNY     75  68  78 S14       29.90F
MYRTLE BEACH   MOSUNNY   79  64  61 S14       29.91F

......INLAND NC AND SC COUNTIES.......

CITY           SKY/WX    TMP DP  RH WIND       PRES   REMARKS
LUMBERTON      MOSUNNY   84  67  56 SW13      29.85S
ELIZABETHTOWN  MOSUNNY   86  62  45 SW10G16   29.86F
WHITEVILLE     MOSUNNY   84  65  52 S9        29.87F
FLORENCE       MOSUNNY   85  67  54 SW14      29.86F
DARLINGTON     NOT AVBL
KINGSTREE      FAIR      86  64  48 S3        29.87F
HARTSVILLE     FAIR      84  63  48 SW10G16   29.85F
BENNETTSVILLE  FAIR      88  64  45 SW14      29.84F
CONWAY         PTSUNNY   79  68  69 S9        29.89S
GEORGETOWN     FAIR      79  66  65 S15       29.90F
MARION         PTSUNNY   82  64  54 SW7       29.87F

....................REST OF NORTH CAROLINA......................

.........EASTERN NC.........

CITY           SKY/WX    TMP DP  RH WIND       PRES   REMARKS
CAPE HATTERAS  MOSUNNY   72  67  84 SW15G22   29.88F
JACKSONVILLE   SUNNY     86  64  47 SW9       29.86S
MOREHEAD CITY  SUNNY     73  67  81 SW18      29.89S
KENANSVILLE    MOSUNNY   86  58  39 SW6       29.85F
NEW BERN       PTSUNNY   86  64  47 SW9G18    29.86S
ELIZABETH CITY SUNNY     71  64  78 E6        29.88F

.........CENTRAL NC.........

CITY           SKY/WX    TMP DP  RH WIND       PRES   REMARKS
RALEIGH DURHAM CLOUDY    80  64  58 W5        29.82F
ROCKY MOUNT    SUNNY     84  66  54 SW8       29.83F
ROANOKE RAPIDS NOT AVBL
FAYETTEVILLE   PTSUNNY   87  64  46 S16G23    29.82F
HOFFMAN        MOSUNNY   86  61  43 SW16G29   29.82F

.........WESTERN NC.........

CITY           SKY/WX    TMP DP  RH WIND       PRES   REMARKS
CHARLOTTE      MOSUNNY   83  62  49 S16G25    29.83F
GREENSBORO     PTSUNNY   79  64  60 S7        29.81F
HICKORY        NOT AVBL
BOONE          NOT AVBL
ASHEVILLE      NOT AVBL

.....................REST OF SOUTH CAROLINA.....................

.........EASTERN SC.........

CITY           SKY/WX    TMP DP  RH WIND       PRES   REMARKS
CHARLESTON     TSTM      72  68  87 SW13G25   29.92R
BEAUFORT MCAS  TSTM      79  70  74 S9G17     29.90F
HILTON HEAD    MOSUNNY   84  68  58 S9G20     29.93F

.........CENTRAL SC.........

CITY           SKY/WX    TMP DP  RH WIND       PRES   REMARKS
COLUMBIA       MOSUNNY   88  65  46 W12       29.85F HX  90
ORANGEBURG     SUNNY     87  65  47 W13G20    29.88F
SUMTER SHAW    SUNNY     86  65  49 SW13      29.84F

.........WESTERN SC.........

CITY           SKY/WX    TMP DP  RH WIND       PRES   REMARKS
GREENVILLE     NOT AVBL
ROCK HILL      SUNNY     84  62  47 SW20G26   29.85F
ANDERSON       SUNNY     86  53  32 SW17G28   29.87F
CLEMSON        NOT AVBL
GREENWOOD      MOSUNNY   84  62  47 W9        29.89F


...................COASTAL AND OFFSHORE REPORTS..................

................LOCAL PIERS AND NC RESERVE................


STATION/POSITION TIME  SKY/WX   TEMP    WIND        PRES    VSBY
                                AIR SEA DIR/SP/G
                 (UTC)          (F)     (DEG/KT/KT) (MB)    (MI)
JOHNY MRCER PIER 2000            70 67  180/ 17/ 19 1011.2F
NC RESRV MASNBRO NOT AVBL
OCEAN CREST PIER NOT AVBL
SPRINGMAID  PIER 2000            71 71  170/ 12/ 14 1012.8F


................COASTAL AND OFFSHORE BUOYS................


STATION/POSITION TIME  SKY/WX   TEMP    WIND        PRES    VSBY
                                AIR SEA DIR/SP/G
                 (UTC)          (F)     (DEG/KT/KT) (MB)    (MI)
DIMNDSHOAL 41025 2050            74 72  210/ 17/ 19 1012.1F
WVE H/P(F/S)=  4/ 6 SWL H/P/D(F/S/D)=  2/110/11

CAPE LOOKOUT     2100            71     210/ 15/ 19 1011.9F
ONSLOW BAY 41036 NOT AVBL
ONSLOW BAY 41064 NOT AVBL
ONSLOW BAY 41159 2025               67                N/A
WVE H/P(F/S)=  4/ 5

5SE WRITBC 41038 2008            70 67  210/ 16/ 19 1013.1F
MASNBO INL 41110 2006               67                N/A
WVE H/P(F/S)=  3/ 6

WILM HARBR 41108 2026               69                N/A
WVE H/P(F/S)=  3/ 5

27SE WRITB 41037 2008            71 69  220/ 14/ 17 1016.0F
FRYING PAN 41013 2000            72 70  200/ 10/ 12 1013.5F
SUNST NRSH 41024 2008            71 69  210/ 10/ 14 1012.5F
CAPRS NRSH 41029 2008            72 72  210/ 12/ 16 1012.9F
EDISTO     41004 2050            73 72  190/  8/ 10 1013.4F
WVE H/P(F/S)=  3/ 5 SWL H/P/D(F/S/D)=  2/ 5



..........OFFSHORE BUOYS BEYOND 100 NM OFFSHORE...........
.....IN A TRIANGLE---HAT TO BERMUDA TO BAHAMAS TO HAT.....


STATION/POSITION TIME  SKY/WX   TEMP    WIND        PRES    VSBY
                                AIR SEA DIR/SP/G
                 (UTC)          (F)     (DEG/KT/KT) (MB)    (MI)
150E HAT   41001 NOT AVBL
W BERMUDA  41048 2050            71 76  170/  4/  6 1017.6F
WVE H/P(F/S)=  3/ 9 SWL H/P/D(F/S/D)=  3/ 80/ 9

ATLANTIC S 41049 2050            74 75   80/ 10/ 12 1017.8R
WVE H/P(F/S)=  4/10 SWL H/P/D(F/S/D)=  3/ 30/10

E BAHAMAS  41046 2050            75 79  110/ 12/ 16 1014.3F
WVE H/P(F/S)=  5/10 SWL H/P/D(F/S/D)=  3/ 40/10

NE BAHAMAS 41047 2050            76 77  130/ 12/ 14 1015.7R
WVE H/P(F/S)=  4/11 SWL H/P/D(F/S/D)=  3/ 70/11

120E CANVRL41010 2020            76 77  190/  8/ 10 1015.7F

END




USA.gov is the U.S. government's official web portal to all federal, state and local government web resources and services.